Precipitable_Water
0.93 1.12 1.04 0.95 0.82 0.69 0.66 0.74 0.83 0.83 0.85 0.88 0.92 0.97 1.02 1.06 1.05 1.06 1.07 1.05 1.02 0.98 0.97 0.97 0.96 0.98 1.01 0.99 1.01 1.02 1.04 1.10 1.16 1.19 1.19 1.14 1.12 1.18 1.23 1.22 1.24 1.27 1.27
1.02 1.09 1.04 1.02 0.90 0.79 0.74 0.72 0.75 0.78 0.80 0.83 0.85 0.87 0.92 0.97 1.00 1.01 1.01 1.02 1.01 0.97 0.91 0.89 0.92 0.97 0.99 1.00 1.02 1.02 1.05 1.09 1.11 1.13 1.16 1.17 1.11 1.11 1.13 1.17 1.22 1.27 1.30
1.13 1.13 1.13 1.10 1.04 0.94 0.87 0.80 0.79 0.80 0.82 0.85 0.88 0.92 0.95 0.95 0.90 0.90 0.95 1.00 1.00 0.96 0.92 0.87 0.86 0.92 0.94 0.97 0.99 1.01 1.03 1.06 1.11 1.14 1.09 1.09 1.12 1.10 1.12 1.13 1.16 1.20 1.26
1.13 1.13 1.17 1.21 1.17 1.09 1.00 0.93 0.87 0.86 0.88 0.90 0.93 0.99 1.02 1.02 1.02 1.01 0.99 0.99 1.00 0.97 0.93 0.89 0.88 0.89 0.91 0.94 0.97 1.03 1.07 1.10 1.17 1.16 1.13 1.13 1.17 1.08 1.08 1.11 1.12 1.14 1.20
1.11 1.12 1.17 1.22 1.21 1.17 1.12 1.04 1.00 0.96 0.91 0.92 0.97 0.95 0.97 1.01 1.04 1.04 1.03 1.04 1.04 1.04 1.05 0.99 0.92 0.89 0.92 0.94 0.96 1.11 1.17 1.20 1.26 1.32 1.27 1.29 1.22 1.17 1.09 1.08 1.11 1.13 1.15
1.11 1.12 1.21 1.29 1.22 1.18 1.18 1.11 1.00 0.98 0.99 0.98 0.99 1.04 1.04 1.05 1.09 1.09 1.11 1.11 1.11 1.11 1.11 1.09 1.03 0.97 0.94 0.94 0.96 0.98 1.16 1.25 1.29 1.31 1.34 1.38 1.48 1.33 1.21 1.15 1.11 1.13 1.12
1.13 1.16 1.20 1.35 1.34 1.28 1.22 1.13 1.06 1.07 1.09 1.12 1.11 1.10 1.11 1.14 1.11 1.15 1.18 1.19 1.19 1.19 1.19 1.19 1.16 1.12 1.07 1.02 0.98 0.98 0.99 1.11 1.21 1.23 1.28 1.30 1.43 1.41 1.30 1.22 1.14 1.08 1.09
1.17 1.27 1.31 1.32 1.28 1.32 1.31 1.20 1.11 1.19 1.18 1.24 1.25 1.24 1.22 1.23 1.25 1.22 1.21 1.23 1.25 1.25 1.25 1.27 1.29 1.29 1.26 1.23 1.18 1.10 1.05 1.05 1.08 1.17 1.24 1.29 1.35 1.44 1.44 1.30 1.21 1.11 1.09
1.17 1.15 1.17 1.21 1.22 1.15 1.16 1.17 1.23 1.28 1.32 1.32 1.37 1.36 1.37 1.34 1.35 1.35 1.35 1.34 1.34 1.35 1.37 1.37 1.38 1.39 1.39 1.39 1.38 1.36 1.28 1.17 1.10 1.13 1.25 1.30 1.35 1.38 1.48 1.43 1.35 1.28 1.22
1.24 1.27 1.27 1.29 1.32 1.33 1.30 1.21 1.30 1.36 1.42 1.42 1.42 1.43 1.42 1.44 1.44 1.47 1.47 1.48 1.48 1.46 1.44 1.42 1.45 1.48 1.51 1.51 1.50 1.51 1.50 1.50 1.42 1.27 1.21 1.27 1.34 1.34 1.53 1.55 1.53 1.45 1.34
1.35 1.38 1.36 1.36 1.39 1.45 1.45 1.37 1.36 1.41 1.45 1.49 1.53 1.57 1.54 1.57 1.57 1.56 1.54 1.57 1.56 1.52 1.48 1.48 1.49 1.53 1.58 1.63 1.67 1.71 1.74 1.67 1.66 1.62 1.55 1.42 1.38 1.33 1.37 1.56 1.57 1.57 1.51
1.31 1.40 1.48 1.52 1.51 1.53 1.53 1.50 1.46 1.52 1.50 1.51 1.52 1.52 1.48 1.47 1.47 1.43 1.46 1.48 1.48 1.49 1.49 1.46 1.46 1.48 1.52 1.55 1.58 1.58 1.68 1.55 1.77 1.76 1.73 1.72 1.60 1.46 1.43 1.37 1.40 1.52 1.58
1.39 1.43 1.58 1.62 1.60 1.59 1.55 1.48 1.45 1.44 1.41 1.41 1.46 1.51 1.49 1.47 1.44 1.40 1.40 1.38 1.36 1.34 1.35 1.37 1.37 1.38 1.43 1.47 1.46 1.48 1.58 1.59 1.60 1.60 1.55 1.78 1.75 1.80 1.67 1.62 1.54 1.51 1.60
1.32 1.39 1.64 1.62 1.53 1.52 1.53 1.52 1.41 1.29 1.32 1.30 1.35 1.40 1.42 1.36 1.24 1.17 1.08 1.00 0.97 0.96 0.92 0.99 1.05 1.13 1.15 1.16 1.23 1.31 1.40 1.44 1.41 1.48 1.54 1.55 1.62 1.69 1.67 1.72 1.68 1.67 1.63
1.36 1.45 1.53 1.52 1.50 1.49 1.45 1.46 1.41 1.36 1.36 1.35 1.36 1.35 1.27 1.13 1.06 1.02 0.99 0.97 0.95 0.95 0.96 0.96 0.96 0.96 0.94 0.90 0.93 0.97 0.95 1.17 1.25 1.29 1.38 1.41 1.46 1.61 1.70 1.65 1.70 1.65 1.60
1.37 1.37 1.39 1.39 1.43 1.42 1.37 1.35 1.31 1.25 1.20 1.15 1.09 1.03 1.04 1.02 0.99 0.97 0.91 0.88 0.87 0.88 0.89 0.90 0.91 0.92 0.94 0.95 0.92 0.91 0.88 0.81 0.81 0.90 0.98 1.07 1.21 1.33 1.48 1.60 1.63 1.65 1.66
1.34 1.37 1.31 1.30 1.37 1.28 1.24 1.09 0.96 0.93 0.90 0.90 0.94 0.95 0.92 0.89 0.84 0.79 0.76 0.75 0.76 0.75 0.74 0.74 0.74 0.76 0.79 0.83 0.84 0.90 0.93 0.94 0.91 0.87 0.86 0.86 0.86 0.94 1.15 1.30 1.48 1.58 1.64
1.31 1.22 1.27 1.26 1.16 1.05 0.93 0.83 0.81 0.82 0.83 0.81 0.79 0.75 0.73 0.72 0.72 0.71 0.70 0.70 0.70 0.68 0.67 0.64 0.63 0.60 0.60 0.60 0.62 0.66 0.74 0.83 0.91 0.94 0.95 0.96 0.97 0.96 0.85 0.89 1.01 1.14 1.25
1.10 1.06 1.00 0.95 0.85 0.82 0.78 0.76 0.78 0.78 0.78 0.79 0.76 0.73 0.74 0.74 0.73 0.70 0.67 0.66 0.65 0.63 0.62 0.61 0.59 0.58 0.55 0.52 0.51 0.49 0.55 0.69 0.80 0.84 0.90 0.93 0.95 0.96 0.97 0.94 0.87 0.86 0.92
1.01 0.92 0.86 0.85 0.81 0.80 0.77 0.77 0.78 0.78 0.80 0.76 0.70 0.70 0.70 0.71 0.71 0.69 0.66 0.64 0.62 0.60 0.60 0.59 0.57 0.58 0.58 0.55 0.52 0.48 0.49 0.58 0.69 0.72 0.79 0.85 0.89 0.93 0.95 0.98 1.01 1.06 1.03
0.87 0.82 0.80 0.79 0.79 0.77 0.73 0.70 0.69 0.68 0.73 0.67 0.67 0.68 0.68 0.67 0.67 0.67 0.67 0.67 0.67 0.63 0.62 0.63 0.61 0.58 0.56 0.58 0.51 0.50 0.51 0.53 0.64 0.57 0.67 0.70 0.75 0.83 0.88 0.93 0.98 1.00 1.06
0.82 0.84 0.81 0.81 0.81 0.79 0.76 0.71 0.69 0.68 0.67 0.63 0.65 0.67 0.69 0.70 0.71 0.71 0.71 0.70 0.71 0.68 0.66 0.63 0.61 0.56 0.56 0.59 0.51 0.50 0.40 0.46 0.48 0.51 0.55 0.58 0.62 0.69 0.76 0.83 0.90 0.96 1.00
0.86 0.86 0.84 0.82 0.81 0.79 0.77 0.76 0.70 0.66 0.66 0.63 0.65 0.67 0.72 0.76 0.76 0.74 0.73 0.71 0.69 0.62 0.53 0.47 0.43 0.39 0.33 0.37 0.41 0.34 0.27 0.24 0.33 0.41 0.46 0.51 0.52 0.54 0.57 0.68 0.76 0.86 0.94
0.91 0.90 0.85 0.81 0.78 0.77 0.76 0.70 0.64 0.61 0.59 0.63 0.67 0.73 0.75 0.76 0.73 0.69 0.61 0.54 0.47 0.42 0.38 0.39 0.41 0.40 0.38 0.32 0.37 0.40 0.41 0.39 0.26 0.22 0.34 0.33 0.38 0.43 0.49 0.53 0.59 0.67 0.82
0.94 0.87 0.81 0.78 0.75 0.71 0.68 0.67 0.65 0.63 0.63 0.67 0.71 0.70 0.70 0.65 0.58 0.51 0.48 0.44 0.40 0.37 0.34 0.32 0.32 0.33 0.35 0.33 0.33 0.34 0.35 0.36 0.36 0.31 0.23 0.27 0.35 0.35 0.37 0.40 0.48 0.56 0.60
0.87 0.82 0.78 0.73 0.66 0.69 0.69 0.69 0.68 0.66 0.66 0.67 0.67 0.63 0.56 0.50 0.46 0.44 0.38 0.34 0.32 0.29 0.27 0.26 0.28 0.28 0.27 0.28 0.30 0.31 0.32 0.31 0.30 0.29 0.26 0.28 0.28 0.33 0.37 0.38 0.39 0.40 0.49
Wind_Speed
2 5 6 6 6 7 7 7 7 6 6 6 6 6 6 6 6 5 4 3 3 3 3 3 4 4 4 5 5 5 5 5 6 6 6 7 7 7 7 8 8 8 8
4 5 6 6 5 6 6 6 6 6 6 5 5 5 5 4 4 3 2 1 1 1 2 2 3 3 3 3 3 3 3 3 4 4 4 5 5 5 5 5 6 6 6
4 5 5 6 5 5 5 5 5 5 5 5 4 4 4 3 2 2 1 0 1 2 3 3 3 3 3 3 3 3 3 3 3 3 4 3 3 3 2 2 3 3 4
4 4 5 5 5 5 4 4 4 4 4 4 3 3 3 2 2 2 2 2 3 3 4 4 5 5 5 5 5 5 4 4 4 4 4 4 4 3 2 2 1 1 1
2 3 5 5 5 5 5 4 5 4 4 4 4 4 4 4 4 4 4 4 5 6 6 6 7 7 7 7 7 7 6 6 6 6 6 6 6 5 5 4 4 3 2
2 2 4 4 5 6 6 5 6 5 5 5 5 5 5 5 5 6 6 7 7 8 9 9 9 9 9 10 10 10 10 10 10 10 10 9 10 9 8 7 6 6 5
1 2 3 2 4 4 6 6 7 7 6 6 6 6 6 7 7 8 9 9 10 11 11 12 12 13 13 13 13 14 14 14 14 14 13 13 12 12 11 10 9 9 8
1 2 3 2 3 4 5 7 8 7 7 7 7 7 8 9 10 11 12 12 13 14 15 16 16 17 17 17 17 17 17 18 18 17 17 16 15 14 14 13 12 11 11
1 1 1 2 3 4 6 7 8 9 8 9 9 9 10 11 12 13 15 16 17 18 19 20 20 21 21 22 22 22 21 21 21 21 20 19 18 17 17 17 15 15 14
1 1 1 4 6 10 10 9 9 9 10 10 11 11 12 14 15 16 17 18 19 21 22 23 24 25 26 26 26 26 26 25 24 23 22 21 20 19 19 19 18 18 17
1 2 5 5 8 7 5 9 9 9 10 12 12 13 14 15 16 17 18 19 21 22 23 24 25 26 27 28 28 28 28 27 26 25 24 23 22 22 21 21 21 21 20
5 5 7 7 8 7 5 7 9 9 10 11 12 13 15 16 17 19 20 21 22 23 24 25 25 26 26 27 27 29 28 31 26 24 25 25 24 24 24 24 24 24 23
7 7 7 7 8 6 4 5 7 9 11 14 15 16 18 20 21 21 24 23 23 25 27 30 30 29 29 30 30 30 29 26 26 24 25 22 24 23 26 27 26 26 25
8 8 8 7 7 5 4 5 8 13 14 15 12 12 13 13 14 16 16 18 21 22 23 24 26 28 33 32 31 32 31 30 29 29 27 26 26 25 26 27 28 26 26
8 9 8 7 6 4 5 7 8 9 12 13 12 13 14 14 16 16 18 19 21 22 22 22 22 22 23 24 26 27 27 29 27 26 26 26 26 26 25 26 29 29 30
9 9 8 7 5 5 7 8 10 11 11 12 12 12 13 14 16 18 19 20 21 22 22 23 24 24 25 26 27 26 27 26 27 28 29 29 29 28 28 27 28 29 30
8 9 8 5 5 6 7 7 8 9 10 11 11 13 14 16 17 18 19 21 22 23 24 24 25 25 25 26 27 28 29 29 30 30 30 31 31 32 32 30 30 30 31
9 10 6 5 4 5 6 8 9 10 11 13 13 14 15 17 18 19 21 23 24 25 26 27 28 28 28 28 28 29 30 30 30 29 28 29 30 32 33 34 33 33 33
9 9 3 4 4 6 8 9 11 12 13 14 15 16 18 19 20 21 23 24 26 27 28 29 29 29 29 29 29 29 27 26 25 27 29 29 29 30 31 33 34 35 36
6 4 2 4 6 8 10 11 12 13 15 16 17 18 20 21 22 24 25 26 27 28 28 28 28 28 28 29 28 27 26 25 25 26 27 28 29 30 31 31 32 34 36
4 4 4 5 8 10 12 13 14 16 18 19 19 20 22 23 24 25 25 26 27 27 28 28 28 28 28 29 27 26 25 26 24 28 27 29 30 31 32 33 33 33 35
5 7 6 8 9 12 14 15 16 17 18 19 20 22 23 24 25 26 26 26 27 27 27 27 26 26 25 27 27 26 25 25 28 29 29 29 31 32 32 33 34 35 36
9 5 7 9 12 14 14 16 17 18 19 20 21 23 24 25 26 26 26 26 26 25 25 25 26 26 26 27 27 26 26 25 30 28 31 31 33 33 34 35 36 36 37
6 7 10 12 13 15 16 17 18 18 19 21 22 23 24 26 26 25 25 25 25 25 26 27 27 28 28 29 29 30 30 32 32 33 31 35 35 36 36 37 38 38 38
7 9 11 13 15 17 17 17 18 19 20 21 23 24 25 26 24 24 25 25 26 27 28 28 29 29 30 31 33 34 35 36 37 39 42 39 39 40 40 40 40 40 41
9 11 12 14 16 17 17 18 19 20 21 23 25 24 23 23 24 26 26 26 27 29 30 30 31 32 34 35 36 37 38 39 41 43 45 47 47 45 44 44 44 43 42
Wind_Direction
148 153 151 140 130 123 123 126 127 127 126 127 125 124 124 123 120 118 115 106 87 72 59 52 51 52 52 51 49 47 47 49 51 51 53 58 60 65 67 68 69 72 77
144 153 155 157 145 137 132 131 132 134 135 135 134 134 135 135 133 131 125 106 58 21 5 11 20 26 24 22 19 19 22 26 30 32 36 42 48 52 60 65 65 68 72
152 158 161 162 163 158 152 148 146 146 149 150 153 154 154 159 166 170 175 267 319 327 330 331 334 335 336 336 333 332 333 339 350 357 1 2 15 21 34 48 56 64 71
151 164 174 179 180 180 181 177 173 169 171 175 179 184 190 205 224 245 266 284 300 309 313 315 314 312 311 310 309 307 303 301 312 320 329 332 326 328 324 321 327 7 41
137 159 177 190 199 200 203 206 203 199 199 201 209 221 232 245 256 267 276 285 292 298 301 302 302 301 300 299 297 294 290 288 289 300 303 306 301 296 292 286 279 275 274
146 175 178 192 211 212 219 225 225 222 221 224 232 240 251 258 266 273 280 286 290 294 295 296 296 296 294 293 292 288 285 283 284 287 288 290 289 283 280 275 270 264 262
177 189 193 192 210 223 231 236 233 234 235 241 246 254 262 268 274 277 281 284 287 289 290 291 291 291 290 289 287 285 282 280 281 282 282 285 284 272 269 269 266 260 257
168 170 180 213 219 234 253 241 234 235 241 245 252 259 266 270 274 278 280 283 285 287 287 287 287 286 286 284 283 281 279 278 277 277 276 278 278 274 264 263 262 259 256
146 170 191 252 252 271 265 244 238 239 243 251 257 263 268 274 277 281 283 284 285 286 286 286 285 284 283 281 280 279 277 276 275 274 273 272 272 274 263 260 260 258 255
118 137 333 306 299 276 266 240 238 245 250 257 261 268 275 279 282 284 285 285 286 286 286 286 285 283 282 281 280 278 277 275 273 272 270 268 269 269 265 259 259 257 255
359 319 328 310 313 303 272 235 239 255 265 267 271 275 279 282 284 287 288 290 289 289 288 287 286 284 282 281 279 277 276 273 270 269 268 266 265 265 264 262 258 258 255
319 311 311 314 319 309 278 244 249 257 271 278 277 281 285 288 289 287 289 292 292 291 290 289 287 288 286 285 285 284 276 281 269 270 270 265 264 264 263 263 261 257 254
317 318 317 315 324 318 284 266 259 263 279 286 282 287 284 290 289 293 286 293 296 296 294 287 284 285 286 285 285 285 285 283 285 279 277 268 270 266 264 262 261 256 254
317 321 322 320 320 312 312 310 293 279 290 284 296 294 294 296 305 305 306 302 305 304 305 304 298 285 281 282 284 283 283 280 283 276 278 279 272 273 268 263 260 256 253
318 321 317 320 315 312 306 310 315 311 307 307 308 308 306 304 308 309 311 310 312 310 309 309 303 299 294 292 289 289 288 279 279 278 277 277 275 273 272 266 262 259 255
313 316 310 312 313 324 322 316 316 319 318 315 313 314 315 312 310 309 311 314 315 315 315 311 309 303 297 294 293 290 286 282 280 278 277 275 273 272 272 270 266 261 256
321 320 310 302 308 324 330 336 338 338 335 331 325 321 317 316 314 313 314 315 315 316 315 314 313 310 306 302 296 291 288 286 282 280 278 276 274 271 269 268 266 264 260
327 331 300 312 312 329 334 333 335 335 334 331 328 326 324 321 319 315 314 314 314 313 312 311 309 308 306 305 303 298 293 288 283 280 281 280 276 273 270 266 265 264 262
321 324 290 309 323 328 331 332 331 332 331 328 326 323 321 320 319 316 315 314 314 313 312 311 310 308 307 306 303 301 298 295 287 286 283 281 279 277 274 269 267 264 262
325 349 323 315 321 326 327 325 325 326 328 326 323 321 320 319 318 317 315 315 314 313 313 313 312 311 309 309 305 303 298 295 291 292 287 284 282 279 276 273 271 267 263
343 349 324 312 318 324 323 320 318 320 321 321 321 320 319 318 318 318 318 318 318 316 316 315 314 313 312 314 309 305 300 297 291 296 290 288 286 283 279 275 272 270 266
322 321 312 315 316 322 321 320 318 316 317 318 319 320 320 320 319 318 318 319 319 318 318 318 319 317 315 317 313 306 302 297 298 297 293 289 288 285 283 279 274 271 268
309 308 325 319 319 320 322 321 320 318 318 318 318 318 320 321 321 320 320 320 321 322 321 321 321 321 317 318 319 315 308 302 302 296 295 293 292 287 284 281 277 274 269
312 304 313 317 320 319 318 318 320 320 319 319 320 320 321 323 323 322 322 324 323 323 322 321 320 318 316 315 313 311 307 303 302 298 292 294 292 290 286 282 278 275 271
302 310 315 320 321 321 320 320 320 322 321 321 321 321 320 321 323 324 324 323 323 323 322 321 319 319 317 315 313 310 306 303 300 297 296 293 290 287 285 283 280 275 272
303 309 315 318 322 322 322 322 322 322 321 322 322 322 320 321 323 324 324 323 323 323 322 321 319 317 316 314 312 310 308 305 302 299 296 294 291 287 283 281 278 276 272